Starlink 31548

operational
NORAD ID: 59193 Int'l Des: 2024-045 Owner: SPXS Country: US Constellation: starlink
LEOCIRCULAR

About Starlink 31548

Description loading...

Live Position

Loading 3D Globe...

Upcoming Passes

Altitude History

Altitude vs Time

uPlot chart will show altitude changes over time

Two-Line Element Set

1 59193U 24045R 25296.29044847 .00006783 00000-0 25574-3 0 9994
2 59193 42.9993 148.8713 0001397 277.4223 82.6470 15.27584198 92147
Epoch: Oct 23, 2025 • Age: 19 hours

Current Status

Altitude 484.4 km
Velocity 7.63 km/s
Sub-Earth Point 31.32°N, 121.87°E
Launch Date Mar 11, 2024
Age 1.6 years
Type internet

Technical Details

Classification Payload
Mass 730.00 kg
Dry Mass 700.00 kg
Total Mass 730.00 kg
Length 0.30 m
Diameter 4.10 m
Span 29.00 m
Shape Box + pan
Manufacturer SPXS
Bus Type Starlink V2M
Phase Status In Orbit
Owner/State SPXS/US

Large Constellations

Loading constellations...